QPF
0.09 0.08 0.06 0.06 0.08 0.08 0.09 0.10 0.11 0.11 0.09 0.10 0.08 0.07 0.06 0.05 0.04 0.04 0.03 0.04 0.04 0.05 0.04 0.05 0.06 0.04 0.04 0.04 0.02 0.02 0.03 0.04 0.04 0.04 0.05 0.07 0.07 0.07 0.07 0.06 0.05 0.05 0.06
0.10 0.10 0.12 0.16 0.13 0.10 0.08 0.07 0.09 0.10 0.11 0.12 0.11 0.10 0.08 0.06 0.06 0.05 0.05 0.04 0.03 0.04 0.05 0.06 0.05 0.05 0.05 0.05 0.04 0.03 0.03 0.03 0.03 0.06 0.08 0.09 0.08 0.08 0.07 0.06 0.06 0.05 0.04
0.07 0.06 0.06 0.08 0.09 0.07 0.08 0.06 0.07 0.07 0.10 0.12 0.10 0.08 0.06 0.05 0.04 0.04 0.03 0.03 0.03 0.03 0.03 0.03 0.05 0.06 0.04 0.02 0.02 0.02 0.02 0.02 0.02 0.02 0.05 0.08 0.08 0.09 0.12 0.10 0.08 0.07 0.06
0.08 0.06 0.05 0.05 0.04 0.05 0.06 0.06 0.05 0.05 0.08 0.09 0.07 0.05 0.05 0.05 0.03 0.02 0.02 0.02 0.03 0.02 0.02 0.03 0.03 0.03 0.02 0.01 0.01 0.01 0.01 0.01 0.02 0.02 0.03 0.05 0.07 0.07 0.11 0.11 0.10 0.08 0.07
0.14 0.10 0.08 0.05 0.05 0.04 0.04 0.05 0.06 0.06 0.07 0.08 0.07 0.06 0.06 0.04 0.03 0.02 0.02 0.03 0.03 0.02 0.01 0.01 0.01 0.01 0.01 0.01 0.01 0.01 0.01 0.01 0.02 0.03 0.05 0.04 0.04 0.04 0.05 0.06 0.10 0.11 0.10
0.15 0.12 0.08 0.06 0.04 0.04 0.05 0.05 0.04 0.04 0.05 0.06 0.07 0.06 0.05 0.03 0.03 0.03 0.03 0.02 0.02 0.01 0.01 0.01 0.00 0.01 0.01 0.01 0.01 0.01 0.01 0.01 0.01 0.03 0.05 0.04 0.03 0.03 0.04 0.06 0.07 0.08 0.08
0.10 0.09 0.08 0.06 0.05 0.05 0.04 0.04 0.04 0.04 0.04 0.05 0.07 0.07 0.06 0.04 0.03 0.02 0.02 0.02 0.01 0.01 0.01 0.01 0.00 0.01 0.01 0.01 0.01 0.01 0.02 0.01 0.01 0.02 0.02 0.02 0.02 0.02 0.03 0.04 0.04 0.05 0.05
0.07 0.06 0.07 0.06 0.05 0.04 0.03 0.03 0.03 0.04 0.05 0.06 0.09 0.07 0.05 0.04 0.02 0.02 0.01 0.01 0.01 0.01 0.01 0.00 0.00 0.01 0.01 0.01 0.02 0.02 0.01 0.01 0.01 0.02 0.02 0.02 0.02 0.01 0.02 0.02 0.03 0.03 0.03
0.06 0.05 0.04 0.03 0.04 0.05 0.03 0.02 0.02 0.03 0.04 0.06 0.08 0.07 0.05 0.03 0.02 0.02 0.01 0.01 0.01 0.01 0.01 0.00 0.00 0.01 0.01 0.00 0.00 0.01 0.01 0.01 0.01 0.01 0.01 0.01 0.01 0.01 0.01 0.01 0.02 0.03 0.03
0.07 0.05 0.04 0.03 0.03 0.03 0.03 0.02 0.02 0.03 0.03 0.04 0.04 0.04 0.04 0.03 0.02 0.01 0.01 0.01 0.00 0.00 0.01 0.01 0.00 0.01 0.01 0.01 0.00 0.00 0.00 0.00 0.01 0.01 0.01 0.01 0.01 0.01 0.01 0.01 0.02 0.03 0.03
0.08 0.07 0.07 0.06 0.04 0.03 0.05 0.04 0.03 0.02 0.02 0.03 0.03 0.03 0.02 0.03 0.02 0.01 0.01 0.01 0.01 0.01 0.01 0.01 0.00 0.00 0.00 0.00 0.00 0.00 0.00 0.00 0.01 0.01 0.01 0.01 0.01 0.01 0.01 0.01 0.01 0.02 0.02
0.10 0.09 0.08 0.07 0.05 0.04 0.04 0.05 0.04 0.01 0.01 0.02 0.03 0.02 0.02 0.03 0.02 0.02 0.01 0.01 0.01 0.01 0.01 0.00 0.00 0.00 0.00 0.00 0.00 0.00 0.01 0.01 0.01 0.02 0.02 0.01 0.01 0.01 0.01 0.01 0.01 0.01 0.01
0.11 0.09 0.07 0.06 0.05 0.04 0.03 0.03 0.03 0.01 0.01 0.01 0.02 0.02 0.02 0.02 0.02 0.01 0.01 0.01 0.01 0.01 0.00 0.00 0.00 0.00 0.00 0.00 0.00 0.01 0.01 0.01 0.01 0.01 0.01 0.01 0.02 0.01 0.01 0.01 0.01 0.01 0.02
0.07 0.06 0.05 0.04 0.04 0.03 0.03 0.03 0.02 0.01 0.01 0.01 0.01 0.02 0.01 0.01 0.01 0.01 0.01 0.01 0.01 0.01 0.00 0.00 0.00 0.00 0.00 0.00 0.00 0.01 0.01 0.01 0.01 0.02 0.02 0.02 0.03 0.03 0.02 0.02 0.02 0.02 0.02
0.04 0.03 0.03 0.03 0.03 0.02 0.02 0.02 0.01 0.01 0.01 0.01 0.01 0.01 0.01 0.01 0.01 0.01 0.01 0.01 0.01 0.01 0.01 0.01 0.01 0.00 0.00 0.00 0.00 0.00 0.01 0.01 0.01 0.02 0.02 0.02 0.02 0.03 0.03 0.02 0.02 0.03 0.03
0.03 0.03 0.03 0.03 0.02 0.01 0.01 0.01 0.01 0.01 0.01 0.01 0.01 0.01 0.01 0.01 0.01 0.01 0.01 0.01 0.01 0.01 0.01 0.01 0.01 0.01 0.00 0.00 0.00 0.00 0.00 0.00 0.01 0.01 0.01 0.01 0.02 0.03 0.03 0.03 0.03 0.03 0.03
0.03 0.03 0.03 0.02 0.02 0.02 0.01 0.01 0.01 0.01 0.01 0.01 0.01 0.01 0.01 0.01 0.01 0.01 0.01 0.01 0.01 0.01 0.01 0.01 0.01 0.01 0.00 0.00 0.00 0.01 0.01 0.01 0.01 0.01 0.01 0.01 0.02 0.02 0.02 0.03 0.04 0.04 0.03
0.03 0.04 0.04 0.03 0.03 0.02 0.01 0.01 0.01 0.01 0.01 0.01 0.01 0.01 0.01 0.01 0.01 0.01 0.01 0.01 0.01 0.00 0.00 0.00 0.00 0.00 0.00 0.00 0.00 0.01 0.01 0.01 0.01 0.01 0.01 0.01 0.01 0.01 0.01 0.02 0.03 0.03 0.03
0.03 0.04 0.04 0.04 0.03 0.02 0.01 0.01 0.01 0.01 0.01 0.01 0.01 0.01 0.01 0.01 0.01 0.02 0.02 0.01 0.00 0.00 0.00 0.00 0.00 0.00 0.00 0.00 0.00 0.00 0.00 0.01 0.01 0.01 0.02 0.02 0.01 0.01 0.01 0.02 0.02 0.02 0.02
0.03 0.04 0.03 0.03 0.02 0.01 0.01 0.01 0.01 0.01 0.01 0.01 0.01 0.01 0.01 0.01 0.02 0.03 0.01 0.01 0.01 0.00 0.00 0.00 0.00 0.00 0.00 0.00 0.00 0.00 0.00 0.00 0.01 0.01 0.02 0.02 0.02 0.01 0.01 0.02 0.02 0.02 0.02
0.03 0.04 0.03 0.02 0.02 0.01 0.01 0.01 0.01 0.01 0.01 0.01 0.01 0.01 0.01 0.02 0.03 0.03 0.02 0.01 0.01 0.01 0.01 0.01 0.01 0.01 0.01 0.00 0.01 0.01 0.00 0.01 0.01 0.01 0.02 0.03 0.03 0.02 0.02 0.02 0.02 0.02 0.02
0.03 0.04 0.03 0.02 0.01 0.01 0.00 0.00 0.01 0.01 0.01 0.01 0.01 0.01 0.02 0.02 0.02 0.02 0.01 0.01 0.01 0.01 0.01 0.01 0.01 0.01 0.01 0.01 0.01 0.01 0.01 0.01 0.02 0.02 0.03 0.03 0.04 0.03 0.02 0.02 0.02 0.02 0.02
0.04 0.04 0.03 0.01 0.01 0.00 0.00 0.00 0.00 0.00 0.01 0.01 0.01 0.02 0.02 0.01 0.01 0.02 0.02 0.01 0.02 0.01 0.01 0.01 0.01 0.02 0.01 0.01 0.01 0.01 0.02 0.03 0.02 0.02 0.02 0.03 0.03 0.04 0.03 0.02 0.02 0.01 0.01
0.05 0.04 0.02 0.01 0.01 0.01 0.00 0.00 0.00 0.01 0.01 0.01 0.01 0.02 0.02 0.01 0.02 0.02 0.02 0.01 0.01 0.01 0.01 0.01 0.02 0.02 0.02 0.02 0.02 0.02 0.02 0.02 0.02 0.01 0.01 0.01 0.02 0.03 0.04 0.03 0.03 0.02 0.01
0.04 0.03 0.02 0.01 0.01 0.00 0.00 0.00 0.00 0.01 0.01 0.01 0.01 0.02 0.01 0.01 0.02 0.02 0.02 0.02 0.01 0.01 0.01 0.01 0.01 0.01 0.02 0.02 0.02 0.02 0.02 0.02 0.02 0.02 0.02 0.02 0.02 0.02 0.04 0.05 0.05 0.04 0.02
0.03 0.03 0.01 0.01 0.01 0.00 0.00 0.00 0.00 0.00 0.00 0.01 0.01 0.01 0.01 0.02 0.02 0.02 0.02 0.01 0.01 0.01 0.01 0.00 0.01 0.01 0.01 0.01 0.02 0.02 0.02 0.02 0.02 0.02 0.02 0.02 0.02 0.02 0.02 0.03 0.04 0.05 0.04
MSLP
1004.68 1004.85 1004.93 1004.93 1004.87 1004.79 1004.73 1004.72 1004.79 1004.96 1005.22 1005.56 1005.94 1006.35 1006.75 1007.13 1007.52 1007.91 1008.34 1008.82 1009.36 1009.94 1010.55 1011.14 1011.67 1012.09 1012.38 1012.50 1012.48 1012.32 1012.07 1011.76 1011.42 1011.10 1010.81 1010.56 1010.34 1010.17 1010.02 1009.92 1009.87 1009.88 1009.96
1004.58 1004.81 1004.92 1004.94 1004.89 1004.80 1004.72 1004.68 1004.71 1004.83 1005.04 1005.32 1005.66 1006.04 1006.43 1006.83 1007.25 1007.70 1008.19 1008.73 1009.32 1009.94 1010.56 1011.15 1011.66 1012.05 1012.31 1012.41 1012.38 1012.24 1012.02 1011.77 1011.51 1011.27 1011.07 1010.91 1010.77 1010.67 1010.57 1010.50 1010.44 1010.41 1010.43
1004.64 1004.93 1005.09 1005.14 1005.09 1004.99 1004.88 1004.79 1004.77 1004.83 1004.97 1005.20 1005.49 1005.84 1006.22 1006.65 1007.11 1007.62 1008.17 1008.77 1009.40 1010.05 1010.68 1011.25 1011.73 1012.09 1012.30 1012.38 1012.33 1012.19 1012.00 1011.79 1011.59 1011.43 1011.31 1011.23 1011.18 1011.14 1011.10 1011.05 1011.01 1010.96 1010.94
1004.82 1005.17 1005.37 1005.44 1005.40 1005.28 1005.14 1005.01 1004.93 1004.93 1005.01 1005.18 1005.43 1005.76 1006.15 1006.60 1007.11 1007.67 1008.28 1008.93 1009.60 1010.26 1010.89 1011.44 1011.88 1012.20 1012.37 1012.41 1012.34 1012.19 1012.01 1011.83 1011.68 1011.57 1011.51 1011.50 1011.51 1011.53 1011.55 1011.54 1011.52 1011.47 1011.42
1005.08 1005.45 1005.67 1005.75 1005.70 1005.57 1005.40 1005.24 1005.12 1005.07 1005.11 1005.25 1005.48 1005.80 1006.21 1006.69 1007.23 1007.84 1008.50 1009.19 1009.89 1010.56 1011.18 1011.70 1012.10 1012.37 1012.50 1012.50 1012.41 1012.25 1012.07 1011.90 1011.77 1011.70 1011.68 1011.71 1011.77 1011.84 1011.90 1011.93 1011.94 1011.92 1011.87
1005.32 1005.68 1005.89 1005.95 1005.90 1005.76 1005.58 1005.41 1005.28 1005.22 1005.25 1005.37 1005.61 1005.94 1006.37 1006.88 1007.47 1008.12 1008.81 1009.53 1010.24 1010.91 1011.51 1012.00 1012.36 1012.59 1012.68 1012.65 1012.53 1012.36 1012.18 1012.01 1011.89 1011.83 1011.83 1011.88 1011.96 1012.06 1012.15 1012.23 1012.27 1012.28 1012.26
1005.46 1005.75 1005.92 1005.96 1005.90 1005.77 1005.61 1005.46 1005.35 1005.32 1005.37 1005.52 1005.78 1006.14 1006.60 1007.15 1007.78 1008.46 1009.18 1009.91 1010.62 1011.28 1011.85 1012.31 1012.63 1012.83 1012.89 1012.83 1012.70 1012.52 1012.33 1012.16 1012.04 1011.98 1011.97 1012.02 1012.11 1012.23 1012.34 1012.44 1012.53 1012.58 1012.60
1005.41 1005.61 1005.71 1005.73 1005.67 1005.57 1005.46 1005.37 1005.33 1005.36 1005.47 1005.68 1005.99 1006.40 1006.90 1007.49 1008.14 1008.84 1009.57 1010.30 1011.00 1011.63 1012.17 1012.59 1012.89 1013.06 1013.10 1013.03 1012.89 1012.71 1012.53 1012.36 1012.23 1012.16 1012.15 1012.18 1012.26 1012.37 1012.49 1012.61 1012.72 1012.80 1012.86
1005.15 1005.24 1005.28 1005.28 1005.25 1005.21 1005.18 1005.19 1005.25 1005.38 1005.58 1005.87 1006.25 1006.72 1007.26 1007.87 1008.54 1009.25 1009.97 1010.68 1011.35 1011.95 1012.46 1012.85 1013.12 1013.26 1013.29 1013.23 1013.10 1012.93 1012.75 1012.59 1012.47 1012.39 1012.36 1012.37 1012.43 1012.52 1012.62 1012.74 1012.86 1012.97 1013.06
1004.69 1004.69 1004.69 1004.69 1004.72 1004.77 1004.85 1004.99 1005.17 1005.42 1005.74 1006.12 1006.57 1007.10 1007.68 1008.31 1008.98 1009.68 1010.38 1011.06 1011.69 1012.24 1012.71 1013.06 1013.31 1013.44 1013.46 1013.41 1013.30 1013.15 1012.99 1012.85 1012.73 1012.64 1012.60 1012.59 1012.62 1012.67 1012.75 1012.85 1012.96 1013.06 1013.16
1004.11 1004.05 1004.04 1004.08 1004.19 1004.35 1004.57 1004.85 1005.18 1005.55 1005.98 1006.46 1006.98 1007.55 1008.15 1008.79 1009.46 1010.13 1010.79 1011.43 1012.01 1012.51 1012.93 1013.25 1013.46 1013.58 1013.60 1013.56 1013.47 1013.35 1013.22 1013.09 1012.99 1012.91 1012.85 1012.82 1012.82 1012.83 1012.87 1012.93 1013.00 1013.08 1013.16
1003.54 1003.45 1003.46 1003.57 1003.78 1004.08 1004.44 1004.86 1005.32 1005.82 1006.35 1006.91 1007.48 1008.08 1008.70 1009.33 1009.97 1010.61 1011.22 1011.80 1012.32 1012.77 1013.13 1013.40 1013.59 1013.68 1013.70 1013.67 1013.60 1013.50 1013.40 1013.30 1013.22 1013.14 1013.08 1013.03 1012.99 1012.97 1012.96 1012.96 1012.98 1013.01 1013.05
1003.08 1003.01 1003.08 1003.28 1003.61 1004.02 1004.52 1005.07 1005.65 1006.25 1006.85 1007.46 1008.07 1008.68 1009.30 1009.91 1010.51 1011.10 1011.66 1012.17 1012.63 1013.02 1013.32 1013.55 1013.69 1013.76 1013.77 1013.73 1013.67 1013.60 1013.52 1013.45 1013.38 1013.32 1013.25 1013.19 1013.13 1013.06 1013.00 1012.95 1012.90 1012.87 1012.85
1002.88 1002.85 1003.00 1003.29 1003.72 1004.24 1004.85 1005.49 1006.15 1006.82 1007.47 1008.11 1008.73 1009.33 1009.92 1010.50 1011.06 1011.59 1012.09 1012.55 1012.94 1013.26 1013.50 1013.67 1013.77 1013.81 1013.80 1013.76 1013.70 1013.64 1013.58 1013.52 1013.47 1013.41 1013.35 1013.28 1013.19 1013.09 1012.99 1012.88 1012.78 1012.68 1012.59
1003.00 1003.04 1003.25 1003.63 1004.14 1004.74 1005.41 1006.11 1006.82 1007.51 1008.18 1008.82 1009.42 1010.00 1010.56 1011.09 1011.60 1012.08 1012.52 1012.91 1013.23 1013.49 1013.68 1013.79 1013.84 1013.84 1013.81 1013.75 1013.69 1013.63 1013.58 1013.53 1013.49 1013.44 1013.38 1013.30 1013.20 1013.08 1012.94 1012.79 1012.63 1012.48 1012.33
1003.48 1003.58 1003.86 1004.29 1004.84 1005.48 1006.17 1006.89 1007.59 1008.28 1008.93 1009.54 1010.11 1010.65 1011.16 1011.65 1012.11 1012.53 1012.91 1013.24 1013.51 1013.71 1013.84 1013.91 1013.92 1013.88 1013.82 1013.74 1013.67 1013.60 1013.55 1013.51 1013.47 1013.43 1013.37 1013.29 1013.18 1013.04 1012.87 1012.70 1012.51 1012.31 1012.12
1004.30 1004.44 1004.75 1005.20 1005.76 1006.39 1007.07 1007.76 1008.43 1009.08 1009.68 1010.25 1010.77 1011.27 1011.73 1012.16 1012.57 1012.94 1013.27 1013.55 1013.76 1013.91 1014.00 1014.02 1013.99 1013.93 1013.84 1013.75 1013.67 1013.59 1013.54 1013.49 1013.45 1013.41 1013.35 1013.26 1013.14 1013.00 1012.83 1012.63 1012.43 1012.21 1012.00
1005.37 1005.54 1005.85 1006.29 1006.82 1007.41 1008.04 1008.67 1009.29 1009.87 1010.42 1010.93 1011.40 1011.84 1012.25 1012.64 1013.00 1013.32 1013.59 1013.82 1013.99 1014.10 1014.14 1014.13 1014.08 1014.00 1013.90 1013.80 1013.70 1013.63 1013.56 1013.51 1013.47 1013.41 1013.34 1013.25 1013.13 1012.98 1012.80 1012.60 1012.39 1012.17 1011.95
1006.59 1006.76 1007.06 1007.46 1007.94 1008.47 1009.03 1009.59 1010.13 1010.65 1011.13 1011.58 1012.00 1012.38 1012.74 1013.08 1013.38 1013.65 1013.88 1014.06 1014.19 1014.26 1014.27 1014.24 1014.17 1014.08 1013.98 1013.87 1013.78 1013.70 1013.63 1013.57 1013.51 1013.44 1013.36 1013.25 1013.12 1012.96 1012.78 1012.59 1012.38 1012.16 1011.95
1007.84 1008.01 1008.27 1008.63 1009.05 1009.51 1009.99 1010.47 1010.94 1011.39 1011.81 1012.20 1012.56 1012.90 1013.21 1013.49 1013.74 1013.96 1014.14 1014.27 1014.35 1014.39 1014.38 1014.33 1014.25 1014.16 1014.06 1013.96 1013.87 1013.79 1013.72 1013.65 1013.57 1013.48 1013.38 1013.25 1013.10 1012.93 1012.74 1012.54 1012.33 1012.12 1011.91
1009.04 1009.19 1009.42 1009.73 1010.09 1010.48 1010.89 1011.30 1011.70 1012.08 1012.45 1012.78 1013.10 1013.38 1013.64 1013.87 1014.07 1014.23 1014.35 1014.43 1014.47 1014.47 1014.44 1014.37 1014.29 1014.20 1014.11 1014.02 1013.94 1013.86 1013.78 1013.69 1013.60 1013.48 1013.35 1013.19 1013.01 1012.82 1012.61 1012.40 1012.19 1011.98 1011.78
1010.11 1010.25 1010.45 1010.71 1011.02 1011.35 1011.70 1012.05 1012.39 1012.72 1013.04 1013.33 1013.59 1013.83 1014.04 1014.21 1014.35 1014.45 1014.52 1014.55 1014.54 1014.50 1014.44 1014.36 1014.27 1014.18 1014.09 1014.01 1013.93 1013.85 1013.76 1013.66 1013.53 1013.39 1013.22 1013.02 1012.81 1012.58 1012.35 1012.13 1011.91 1011.70 1011.49
1011.02 1011.15 1011.34 1011.56 1011.83 1012.11 1012.41 1012.71 1013.00 1013.29 1013.55 1013.80 1014.02 1014.21 1014.36 1014.49 1014.57 1014.61 1014.62 1014.59 1014.53 1014.45 1014.36 1014.26 1014.16 1014.06 1013.97 1013.89 1013.81 1013.72 1013.62 1013.49 1013.34 1013.16 1012.95 1012.72 1012.46 1012.20 1011.95 1011.70 1011.46 1011.24 1011.04
1011.79 1011.92 1012.08 1012.29 1012.51 1012.75 1013.01 1013.26 1013.51 1013.75 1013.97 1014.17 1014.35 1014.49 1014.60 1014.67 1014.70 1014.69 1014.64 1014.55 1014.45 1014.32 1014.20 1014.07 1013.95 1013.84 1013.75 1013.66 1013.57 1013.46 1013.34 1013.20 1013.02 1012.80 1012.55 1012.28 1011.99 1011.69 1011.41 1011.13 1010.89 1010.66 1010.45
1012.44 1012.57 1012.72 1012.90 1013.09 1013.29 1013.50 1013.70 1013.90 1014.09 1014.27 1014.43 1014.56 1014.66 1014.72 1014.74 1014.72 1014.66 1014.56 1014.43 1014.29 1014.13 1013.97 1013.82 1013.68 1013.55 1013.44 1013.34 1013.24 1013.12 1012.98 1012.81 1012.60 1012.35 1012.07 1011.76 1011.44 1011.11 1010.80 1010.51 1010.25 1010.02 1009.82
1013.02 1013.15 1013.28 1013.43 1013.58 1013.74 1013.89 1014.04 1014.18 1014.31 1014.44 1014.54 1014.63 1014.68 1014.70 1014.68 1014.62 1014.53 1014.40 1014.24 1014.06 1013.88 1013.70 1013.53 1013.37 1013.24 1013.11 1013.00 1012.88 1012.75 1012.59 1012.40 1012.17 1011.89 1011.59 1011.25 1010.90 1010.56 1010.22 1009.92 1009.65 1009.42 1009.23
Thickness
5650 5647 5644 5641 5639 5635 5631 5628 5626 5623 5621 5618 5615 5613 5612 5611 5610 5609 5607 5606 5606 5606 5605 5605 5604 5604 5604 5605 5605 5606 5606 5606 5608 5611 5612 5613 5615 5617 5619 5621 5622 5623 5625
5645 5641 5637 5634 5632 5628 5626 5623 5620 5618 5616 5613 5611 5609 5607 5606 5605 5604 5602 5602 5601 5601 5600 5600 5599 5599 5599 5599 5600 5601 5601 5602 5602 5604 5606 5606 5608 5610 5611 5613 5615 5616 5618
5639 5635 5632 5629 5626 5623 5620 5618 5616 5613 5611 5609 5607 5604 5602 5601 5600 5598 5597 5596 5596 5596 5595 5594 5594 5593 5593 5594 5594 5595 5596 5597 5597 5598 5600 5600 5601 5602 5603 5605 5607 5609 5611
5633 5630 5626 5624 5621 5618 5616 5613 5610 5609 5607 5604 5601 5599 5597 5596 5595 5593 5592 5592 5591 5590 5590 5589 5589 5588 5589 5589 5590 5590 5590 5591 5592 5592 5593 5594 5594 5595 5596 5597 5599 5601 5603
5626 5624 5621 5619 5616 5613 5611 5608 5606 5605 5603 5599 5597 5595 5593 5591 5590 5588 5587 5587 5586 5585 5585 5585 5585 5585 5584 5584 5585 5585 5585 5585 5586 5587 5587 5588 5589 5589 5590 5591 5592 5594 5596
5622 5619 5617 5614 5612 5609 5607 5604 5602 5600 5597 5595 5593 5590 5588 5587 5586 5584 5584 5583 5581 5580 5580 5580 5580 5581 5580 5580 5580 5580 5580 5580 5581 5581 5582 5582 5583 5583 5584 5584 5584 5586 5588
5618 5615 5612 5610 5607 5605 5603 5601 5598 5596 5593 5591 5589 5587 5585 5583 5582 5581 5580 5579 5577 5576 5575 5575 5576 5576 5575 5575 5576 5575 5575 5575 5575 5575 5576 5576 5577 5577 5578 5578 5578 5579 5581
5614 5612 5608 5605 5603 5601 5599 5597 5595 5593 5590 5588 5586 5584 5582 5580 5579 5578 5577 5575 5574 5572 5571 5571 5570 5570 5569 5569 5569 5569 5569 5569 5569 5569 5570 5570 5570 5571 5571 5572 5572 5573 5574
5611 5608 5606 5603 5601 5598 5596 5594 5591 5590 5588 5586 5583 5581 5579 5578 5576 5575 5573 5571 5570 5569 5567 5566 5565 5565 5564 5563 5563 5563 5563 5564 5564 5564 5564 5564 5565 5565 5565 5565 5566 5568 5570
5608 5606 5604 5601 5599 5596 5594 5591 5589 5587 5585 5584 5582 5580 5578 5576 5575 5573 5571 5568 5566 5565 5564 5563 5562 5561 5560 5559 5558 5557 5558 5558 5558 5559 5559 5560 5560 5560 5560 5560 5562 5563 5564
5606 5604 5602 5600 5597 5595 5592 5589 5587 5585 5583 5581 5580 5579 5577 5575 5573 5571 5569 5566 5564 5563 5562 5561 5560 5558 5557 5556 5554 5554 5553 5553 5553 5554 5555 5556 5556 5557 5557 5557 5558 5559 5560
5605 5603 5601 5598 5596 5594 5591 5588 5586 5584 5581 5580 5578 5577 5576 5574 5572 5570 5568 5566 5563 5561 5560 5558 5557 5556 5555 5554 5553 5552 5551 5550 5551 5551 5552 5552 5553 5554 5555 5555 5555 5556 5557
5605 5602 5599 5597 5594 5592 5590 5587 5585 5582 5580 5579 5577 5575 5575 5574 5571 5569 5568 5565 5562 5559 5558 5556 5555 5554 5554 5554 5553 5551 5550 5549 5549 5549 5550 5550 5551 5551 5551 5552 5553 5554 5555
5603 5600 5598 5595 5593 5591 5589 5586 5584 5583 5581 5579 5577 5576 5574 5572 5571 5570 5567 5564 5562 5559 5557 5555 5554 5553 5553 5552 5551 5550 5549 5548 5547 5547 5548 5548 5548 5549 5550 5550 5551 5553 5554
5602 5599 5597 5595 5593 5590 5588 5586 5584 5583 5581 5579 5578 5576 5573 5573 5573 5569 5566 5563 5561 5558 5555 5554 5554 5553 5552 5552 5551 5550 5548 5547 5546 5546 5546 5546 5547 5548 5548 5548 5549 5550 5551
5601 5599 5596 5594 5592 5589 5587 5585 5585 5584 5583 5580 5578 5576 5575 5573 5571 5568 5565 5562 5559 5556 5553 5553 5553 5552 5551 5550 5549 5549 5548 5548 5547 5546 5546 5546 5546 5546 5547 5547 5546 5547 5549
5601 5599 5596 5594 5592 5590 5588 5586 5585 5584 5584 5582 5580 5578 5575 5574 5571 5569 5565 5562 5559 5556 5554 5553 5552 5551 5550 5549 5548 5548 5548 5547 5546 5545 5545 5545 5545 5545 5545 5545 5545 5546 5547
5601 5599 5597 5594 5592 5590 5588 5586 5585 5583 5582 5582 5581 5579 5577 5575 5572 5569 5566 5562 5560 5557 5555 5553 5552 5551 5550 5549 5548 5548 5547 5546 5545 5545 5545 5545 5544 5544 5544 5544 5544 5544 5545
5602 5600 5597 5595 5593 5591 5589 5587 5585 5583 5581 5579 5579 5579 5577 5575 5573 5570 5566 5562 5561 5559 5557 5554 5552 5551 5549 5548 5548 5547 5546 5546 5545 5544 5544 5544 5543 5542 5542 5542 5542 5541 5541
5602 5601 5598 5596 5594 5592 5590 5587 5585 5583 5581 5580 5579 5577 5575 5573 5571 5569 5566 5562 5560 5558 5557 5555 5553 5551 5549 5548 5547 5546 5546 5545 5544 5543 5543 5542 5542 5541 5541 5540 5540 5540 5540
5603 5601 5598 5596 5594 5592 5590 5588 5586 5584 5582 5580 5578 5577 5573 5571 5570 5568 5565 5563 5561 5559 5557 5555 5553 5551 5549 5547 5546 5545 5545 5544 5543 5542 5542 5541 5541 5540 5539 5538 5538 5538 5538
5603 5601 5598 5596 5594 5592 5590 5588 5586 5584 5582 5580 5578 5576 5572 5570 5568 5566 5564 5562 5560 5558 5556 5553 5552 5550 5547 5546 5545 5543 5542 5542 5541 5540 5539 5539 5538 5538 5537 5537 5537 5536 5536
5603 5601 5599 5597 5595 5592 5590 5588 5586 5584 5582 5579 5577 5574 5571 5569 5566 5564 5562 5560 5559 5556 5554 5552 5549 5548 5546 5544 5542 5540 5538 5538 5536 5535 5534 5535 5534 5534 5534 5533 5533 5533 5533
5603 5601 5599 5597 5595 5593 5591 5588 5585 5583 5580 5578 5575 5572 5569 5566 5564 5562 5560 5558 5555 5553 5551 5549 5547 5545 5543 5541 5539 5536 5534 5532 5531 5530 5530 5530 5530 5530 5529 5528 5528 5528 5527
5603 5601 5600 5597 5595 5593 5590 5587 5585 5582 5579 5576 5574 5570 5567 5565 5562 5560 5557 5555 5553 5551 5549 5547 5544 5542 5539 5537 5534 5531 5528 5527 5525 5524 5524 5523 5524 5524 5523 5523 5522 5522 5521
5604 5602 5600 5598 5595 5592 5590 5587 5584 5581 5578 5575 5572 5569 5566 5563 5560 5558 5555 5552 5550 5548 5545 5543 5540 5537 5534 5531 5528 5525 5523 5521 5519 5518 5517 5517 5517 5517 5516 5516 5515 5514 5513